Regional Weather Roundup
Issued by NWS

Home | Current Version | Previous Version | Text Only | Print | Product List | Glossary Off
Versions: 1 2 3 4 5 6 7 8 9 10 11 12 13 14 15 16 17 18 19 20 21 22 23 24 25 26 27 28 29 30 31 32 33 34 35 36 37 38 39 40 41 42 43 44 45 46 47 48 49 50

000
ASUS43 KBIS 300820
RWRND

NORTH DAKOTA REGIONAL WEATHER ROUNDUP
NATIONAL WEATHER SERVICE BISMARCK ND
300 AM CDT THU OCT 30 2014

NOTE: "FAIR" INDICATES FEW OR NO CLOUDS BELOW 12,000 FEET WITH NO
SIGNIFICANT WEATHER AND/OR OBSTRUCTIONS TO VISIBILITY.


NDZ001>003-009>011-017-300900-
NORTHWEST NORTH DAKOTA

CITY           SKY/WX    TMP DP  RH WIND       PRES   REMARKS
WILLISTON      MOCLDY    36  31  82 N9        30.14R
MINOT          CLEAR     29  26  89 NW10      30.07R WCI  20
MINOT AFB      CLEAR     30  29  99 N12       30.07R
$$

NDZ018>021-031>035-040>046-300900-
SOUTHWEST NORTH DAKOTA

CITY           SKY/WX    TMP DP  RH WIND       PRES   REMARKS
BISMARCK       CLEAR     37  37 100 NW8       30.03R
DICKINSON      CLEAR     35  32  88 NW12      30.07R
GARRISON         N/A     32  30  92 NW9       30.05R
HETTINGER ARPT CLEAR     34  31  88 NW9       30.10R
$$

NDZ004>008-012>016-024-026-027-054-300900-
NORTHEAST NORTH DAKOTA

CITY           SKY/WX    TMP DP  RH WIND       PRES   REMARKS
GRAND FORKS    CLOUDY    38  33  82 NE7       30.01R
GRND FRKS AFB  CLOUDY    37  36  93 NE7       30.02R
DEVILS LAKE    CLEAR     32  23  69 NE10      30.00R
$$

NDZ022-023-025-028>030-036>039-047>053-300900-
SOUTHEAST NORTH DAKOTA

CITY           SKY/WX    TMP DP  RH WIND       PRES   REMARKS
FARGO          LGT RAIN  40  37  89 S5        29.99R
JAMESTOWN      FOG       36  35  96 W7        29.95S VSB 1/4
$$




USA.gov is the U.S. government's official web portal to all federal, state and local government web resources and services.